Regional Weather Roundup
Issued by NWS Cleveland, OH

Home | Current Version | Previous Version | Graphics & Text | Print | Product List | Glossary On
Versions: 1 2 3 4 5 6 7 8 9 10 11 12 13 14 15 16 17 18 19 20 21 22 23 24 25 26 27 28 29 30 31 32 33 34 35 36 37 38 39 40 41 42 43 44 45 46 47 48 49 50
000
ASUS41 KCLE 211102
RWRCLE
OHIO REGIONAL WEATHER ROUNDUP
NATIONAL WEATHER SERVICE CLEVELAND, OH
700 AM EDT SUN SEP 21 2014

NOTE: "FAIR" INDICATES FEW OR NO CLOUDS BELOW 12,000 FEET WITH NO
SIGNIFICANT WEATHER AND/OR OBSTRUCTIONS TO VISIBILITY.

OHZ001>008-015>018-024>027-034-035-043-044-211200-
   NORTHWEST OHIO

CITY           SKY/WX    TMP DP  RH WIND       PRES   REMARKS
DEFIANCE       PTCLDY   N/A N/A N/A W8G21     29.71R
FINDLAY        CLOUDY    71  66  84 MISG      29.70S
TOLEDO EXPRESS CLEAR     67  60  78 W22G29    29.66R
TOLEDO EXEC    PTCLDY    69  63  81 SW23G30   29.66R
LIMA           MOCLDY    70  67  90 SW17      29.73F
$$

OHZ009>014-019>023-028>033-038-089-211200-
   NORTHEAST OHIO

CITY           SKY/WX    TMP DP  RH WIND       PRES   REMARKS
CLE-HOPKINS    CLOUDY    68  65  90 S13       29.70F
CLE-LAKEFRONT  MOCLDY    70  65  84 S20G28    29.66F
CUY CO. ARPT   LGT RAIN  70  66  88 SW12      29.69
LORAIN-ELYRIA  CLOUDY    72  67  84 SW18G26   29.70R
ASHTABULA      MOCLDY    66  64  93 S10       29.70
AKRON-CANTON   CLOUDY    70  63  78 SW12      29.74F
WOOSTER        CLOUDY    68  64  87 SW12      29.74F
MANSFIELD      CLOUDY    69  65  86 SW15G23   29.74F
YOUNGSTOWN     TSTM      67  63  87 S10G17    29.74F
$$

OHZ042-051>053-060>062-070>072-077>081-211200-
  SOUTHWEST OHIO

CITY           SKY/WX    TMP DP  RH WIND       PRES   REMARKS
CINC-COVINGTON MOCLDY    72  65  78 W8        29.83F
CINC-LUNKEN    MOCLDY    71  66  84 SW9       29.83R
HAMILTON       LGT RAIN  70  67  90 W6        29.82S
DAYTON         CLOUDY    71  67  87 W13       29.80S
WRIGHT-PAT AFB PTCLDY    70  66  88 SW10      29.79S
DAYTON GENERAL CLOUDY    69  66  90 SW9       29.81R
WILMINGTON     MOCLDY    68  64  87 SW9       29.81F
$$

OHZ036-037-039>041-045>050-054>059-063>069-073>076-082>088-211200-
  CENTRAL AND SOUTHEAST OHIO

CITY           SKY/WX    TMP DP  RH WIND       PRES   REMARKS
COLUMBUS       CLOUDY    72  63  73 SW8       29.78S
OSU AIRPORT    MOCLDY    69  64  84 SW8       29.78R
BOLTON FIELD   MOCLDY    68  65  90 SW10G17   29.79S
RICKENBACK AFB MOCLDY    68  64  86 S10       29.79R
NEWARK         CLOUDY    69  63  81 SW8       29.78F
MARION         CLOUDY    72  65  78 W15G24    29.75R
LANCASTER      MOCLDY    69  63  81 SW7       29.80S
ZANESVILLE     CLOUDY    68  62  81 SW8       29.80F
NEW PHILLY     CLOUDY    68  63  84 S6        29.77
$$


USA.gov is the U.S. government's official web portal to all federal, state and local government web resources and services.